Location: ???????
(38.3360°N, 23.6977°E)
Time: 22:16:45
(UTC+00:00)

Cosmos 2369 Rocket - Pass Details

Date: 17 November 2025
Orbit: 826 x 853 km, 71.0° (Epoch: 12 December)

Event Time Altitude Azimuth Distance (km) Brightness Sun altitude
Rises 17:59:14 0° 208° (SSW) 3,351 5.6 -32.9°
Reaches altitude 10° 18:01:39 10° 211° (SSW) 2,424 4.9 -33.3°
Enters shadow 18:04:31 31° 219° (SW) 1,411 3.6 -33.9°
